www.pogodaiklimat.ru

Погода и климат >> Архив погоды >> Бельгия >> Мелле


ПОГОДА в Мелле

  • Прогноз погоды в Мелле
  • Монитор погоды в Мелле

АРХИВ ПОГОДЫ в Мелле

Время (UTC), дата Ветер
(напр.,м/с)
 
Видим.   Явления Облачность Т
(С)
Тd
(С)
f
(%)
Тe
(С)
Тes
(С)
Комфортность P
(гПа)
Po
(гПа)
Тmin
(С)
Tmax
(С)
R
(мм)
R24
(мм)
S
(см)
13 10.09 З 3 н/о н/о +20.0 +7.4 44 +21 +21 комфорт 1019.2 1017.3 149
14 10.09 З 3 н/о н/о +20.6 +7.7 43 +22 +22 комфорт 1019.1 1017.2 182
15 10.09 СЗ 2 н/о н/о +20.3 +8.8 48 +22 +22 комфорт 1019.1 1017.1 118
16 10.09 СЗ 3 н/о н/о +20.4 +8.6 47 +22 +22 комфорт 1019.5 1017.6 118
17 10.09 СЗ 3 н/о н/о +18.4 +8.7 53 +19 +19 1020.0 1018.1 50
18 10.09 СЗ 2
{6}
н/о н/о +17.2 +9.4 60 +18 +18 1020.3 1018.3 +21.0 20
19 10.09 штиль 0 н/о н/о +13.5 +9.7 78 +13 +13 1020.8 1018.8
20 10.09 З 1 н/о н/о +13.5 +10.6 83 +14 +14 1021.5 1019.5
21 10.09 Ю 1 н/о н/о +13.5 +10.5 82 +14 +14 1021.6 1019.6
22 10.09 ЮЗ 1 н/о н/о +11.9 +9.8 87 +12 +12 1021.6 1019.6
23 10.09 ЮЗ 1 н/о н/о +12.3 +10.5 89 +12 +12 1021.6 1019.6
00 11.09 ЮЗ 3 н/о н/о +13.8 +10.8 82 +13 +13 1021.7 1019.7 145
01 11.09 ЮЗ 3 н/о н/о +13.0 +10.0 82 +12 +12 1021.5 1019.5
02 11.09 ЮЗ 3 н/о н/о +12.6 +9.7 82 +11 +11 1021.7 1019.7
03 11.09 ЮЗ 3 н/о н/о +13.1 +10.0 81 +12 +12 1021.5 1019.5
04 11.09 ЮЗ 3 н/о н/о +13.2 +10.5 84 +12 +12 1021.1 1019.1
05 11.09 Ю 2 н/о н/о +13.6 +11.2 85 +13 +13 1021.0 1019.0
06 11.09 ЮЗ 2
{5}
н/о н/о +13.7 +11.7 88 +13 +13 1021.6 1019.6 +11.8 0.1
07 11.09 ЮЗ 3 н/о н/о +13.9 +12.3 90 +13 +13 1021.9 1019.9 8
08 11.09 ЮЗ 3 н/о н/о +14.2 +12.6 90 +13 +13 1022.1 1020.1 19
09 11.09 ЮЗ 4
{7}
н/о н/о +14.9 +13.3 90 +14 +14 1022.3 1020.3 38
10 11.09 ЮЗ 4 н/о н/о +15.4 +13.5 88 +14 +14 1022.2 1020.2 46
11 11.09 ЮЗ 6 н/о н/о +16.4 +13.5 83 +15 +15 1022.4 1020.5 65
12 11.09 ЮЗ 6
{11}
н/о н/о +17.2 +13.3 78 +16 +16 1022.3 1020.3 75
13 11.09 З 5 н/о н/о +15.3 +13.7 90 +14 +14 1022.6 1020.7 57
14 11.09 ЮЗ 4 н/о н/о +17.2 +14.5 84 +17 +17 1021.9 1019.9 90
15 11.09 ЮЗ 4
{12}
н/о н/о +18.5 +13.8 74 +19 +19 1022.1 1020.1 75
16 11.09 З 5 н/о н/о +18.4 +14.0 76 +19 +19 1022.4 1020.4 21
17 11.09 З 4 н/о н/о +18.2 +14.4 78 +18 +18 1022.4 1020.5 14
18 11.09 З 5
{12}
н/о н/о +17.1 +15.3 89 +16 +16 1022.7 1020.7 +18.5 3
19 11.09 ЮЗ 4 н/о н/о +16.7 +15.6 93 +16 +16 1023.3 1021.3
20 11.09 З 4 н/о н/о +16.8 +15.6 93 +16 +16 1023.9 1021.9
21 11.09 З 4 н/о н/о +17.0 +15.8 93 +17 +17 1024.0 1022.0
22 11.09 З 4 н/о н/о +17.3 +15.9 91 +17 +17 1024.2 1022.3
23 11.09 З 4 н/о н/о +17.3 +15.9 91 +17 +17 1024.2 1022.3
00 12.09 З 3
{8}
н/о н/о +17.4 +15.9 91 +17 +17 1024.7 1022.7 51
01 12.09 ЮЗ 4 н/о н/о +17.5 +15.7 89 +17 +17 1025.0 1023.0
02 12.09 ЮЗ 3 н/о н/о +17.2 +15.7 91 +17 +17 1025.1 1023.1
03 12.09 З 3 н/о н/о +17.4 +15.8 90 +17 +17 1025.6 1023.6
04 12.09 З 3 н/о н/о +17.0 +15.3 90 +17 +17 1025.8 1023.8
05 12.09 ЮЗ 3 н/о н/о +16.5 +15.0 91 +16 +16 1026.1 1024.1
06 12.09 ЮЗ 2
{8}
н/о н/о +16.6 +15.3 92 +17 +17 1026.8 1024.8 +16.5 1
07 12.09 ЮЗ 3 н/о н/о +17.3 +15.8 91 +17 +17 1027.0 1025.0 19
08 12.09 З 3 н/о н/о +18.7 +15.6 82 +20 +20 1028.0 1026.0 71
09 12.09 З 5
{9}
н/о н/о +19.0 +14.6 76 +20 +20 1028.6 1026.6 86
10 12.09 З 5 н/о н/о +20.0 +13.5 66 +22 +22 комфорт 1029.0 1027.1 123
11 12.09 З 5 н/о н/о +20.7 +12.8 61 +23 +23 комфорт 1029.3 1027.3 168
12 12.09 З 4 н/о н/о +21.9 +13.0 57 +25 +25 комфорт 1029.5 1027.5 201
13 12.09 З 4 н/о н/о +22.8 +12.4 52 +26 +26 жарко 1029.2 1027.3 193
14 12.09 З 4 н/о н/о +22.5 +13.4 56 +25 +25 комфорт 1029.2 1027.2 129
15 12.09 З 4 н/о н/о +22.6 +14.7 61 +26 +26 жарко 1029.0 1027.1 57
16 12.09 ЮЗ 5 н/о н/о +21.7 +15.1 66 +25 +25 комфорт 1029.3 1027.3 66
17 12.09 З 5 н/о н/о +21.1 +15.5 70 +24 +24 комфорт 1029.6 1027.6 39
18 12.09 ЮЗ 3
{10}
н/о н/о +20.1 +15.7 76 +23 +23 комфорт 1029.5 1027.5 +23.3
19 12.09 З 5 н/о н/о +19.7 +15.5 77 +22 +22 комфорт 1029.6 1027.6
20 12.09 З 5 н/о н/о +19.2 +14.6 75 +20 +20 1029.8 1027.9
21 12.09 З 5 н/о н/о +18.6 +14.1 75 +19 +19 1029.9 1027.9
22 12.09 З 4 н/о н/о +18.4 +14.3 77 +19 +19 1030.1 1028.1
23 12.09 З 5 н/о н/о +18.1 +14.5 79 +18 +18 1030.0 1028.0
00 13.09 З 4 н/о н/о +18.0 +14.7 81 +18 +18 1030.1 1028.1 117
01 13.09 З 4 н/о н/о +17.9 +14.3 79 +18 +18 1030.1 1028.1
02 13.09 З 4 н/о н/о +17.7 +14.1 79 +17 +17 1030.2 1028.3
03 13.09 З 3 н/о н/о +17.5 +14.0 80 +18 +18 1030.2 1028.3
04 13.09 З 3 н/о н/о +17.4 +14.1 81 +17 +17 1030.4 1028.4
05 13.09 З 2 н/о н/о +17.2 +14.3 83 +18 +18 1031.0 1029.0
06 13.09 З 2
{8}
н/о н/о +17.2 +14.4 84 +18 +18 1031.5 1029.5 +17.2
07 13.09 З 2 н/о н/о +17.5 +14.9 85 +18 +18 1031.9 1029.9 8
08 13.09 З 2 н/о н/о +17.6 +15.8 89 +18 +18 1032.4 1030.4 21
09 13.09 СЗ 1
{4}
н/о н/о +19.0 +16.3 84 +22 +22 комфорт 1032.9 1030.9 63
10 13.09 СЗ 2 н/о н/о +20.1 +15.7 76 +23 +23 комфорт 1033.1 1031.1 85
11 13.09 С 4 н/о н/о +20.5 +16.1 76 +24 +24 комфорт 1033.3 1031.4 98
12 13.09 н/о н/о +20.8 +14.3 66 1033.6 1031.6 140
13 13.09 С 5 н/о н/о +21.3 +13.3 60 +24 +24 комфорт 1033.6 1031.6 148
14 13.09 С 4 н/о н/о +21.7 +12.4 55 +24 +24 комфорт 1033.6 1031.6 179
15 13.09 С 6 н/о н/о +20.0 +12.4 62 +21 +21 комфорт 1033.8 1031.9 87
16 13.09 С 4 н/о н/о +19.8 +12.0 61 +21 +21 комфорт 1033.8 1031.9 52
17 13.09 СВ 6 н/о н/о +18.7 +11.8 64 +19 +19 1034.0 1032.1 35
18 13.09 С 4
{8}
н/о н/о +17.4 +12.2 72 +17 +17 1034.4 1032.4 +21.9 13
19 13.09 С 4 н/о н/о +15.8 +12.1 79 +15 +15 1035.0 1033.0
20 13.09 С 4 н/о н/о +14.8 +11.6 81 +14 +14 1035.1 1033.1
21 13.09 С 2 н/о н/о +13.6 +11.2 85 +13 +13 1035.4 1033.4
22 13.09 С 3 н/о н/о +13.1 +11.0 87 +12 +12 1035.3 1033.3
23 13.09 С 2 н/о н/о +12.5 +10.8 89 +12 +12 1035.4 1033.4
00 14.09 С 2 н/о н/о +12.2 +10.7 91 +11 +11 1035.2 1033.1 93
01 14.09 СВ 2 н/о н/о +10.9 +9.5 91 +10 +10 1034.7 1032.6
02 14.09 СЗ 1 н/о н/о +9.4 +8.2 92 +9 +9 1034.3 1032.3
03 14.09 СВ 1 н/о н/о +10.1 +9.3 95 +10 +10 1034.7 1032.7
04 14.09 СВ 1 н/о н/о +9.7 +8.9 95 +9 +9 1034.3 1032.2
05 14.09 штиль 0 н/о н/о +8.6 +7.7 94 +8 +8 1034.0 1031.9
06 14.09 штиль 0
{3}
н/о н/о +8.4 +7.5 94 +7 +7 1033.8 1031.8 +8.0 2
07 14.09 В 2 н/о н/о +12.0 +10.1 88 +11 +11 1034.0 1032.0 29
08 14.09 СВ 2 н/о н/о +14.4 +10.6 78 +14 +14 1034.5 1032.5 76
09 14.09 ЮВ 2
{5}
н/о н/о +17.1 +11.3 69 +17 +17 1034.0 1032.0 120
10 14.09 В 2 н/о н/о +19.1 +12.0 63 +21 +21 комфорт 1033.6 1031.6 157
11 14.09 В 3 н/о н/о +20.4 +11.6 57 +23 +23 комфорт 1032.9 1030.9 178
12 14.09 ЮВ 1 н/о н/о +20.9 +10.4 51 +24 +24 комфорт 1032.4 1030.5 192
13 14.09 В 2 н/о н/о +21.7 +10.3 48 +23 +23 комфорт 1031.9 1029.9 189
14 14.09 СВ 3 н/о н/о +22.2 +9.6 45 +24 +24 комфорт 1031.1 1029.1 172
15 14.09 СВ 3 н/о н/о +22.4 +9.1 43 +24 +24 комфорт 1029.9 1027.9 144
16 14.09 В 3 н/о н/о +21.6 +8.3 42 +23 +23 комфорт 1029.5 1027.5 96
17 14.09 В 2 н/о н/о +21.0 +8.3 44 +23 +23 комфорт 1029.4 1027.4 48
18 14.09 СВ 2
{5}
н/о н/о +17.4 +10.2 63 +18 +18 1029.2 1027.2 +22.4 14
19 14.09 штиль 0 н/о н/о +13.5 +9.8 78 +13 +13 1029.1 1027.1
20 14.09 штиль 0 н/о н/о +11.6 +9.0 84 +11 +11 1029.1 1027.1
21 14.09 штиль 0 н/о н/о +10.6 +8.5 87 +10 +10 1028.7 1026.7
22 14.09 штиль 0 н/о н/о +9.7 +8.0 89 +9 +9 1028.1 1026.0
23 14.09 ЮЗ 1 н/о н/о +9.2 +7.7 90 +9 +9 1027.7 1025.6
00 15.09 ЮЗ 1 н/о н/о +8.1 +6.7 91 +7 +7 1027.1 1025.1 142
01 15.09 З 1 н/о н/о +7.3 +6.1 92 +6 +6 1026.8 1024.8
02 15.09 З 1 н/о н/о +6.9 +5.8 93 +6 +6 1026.5 1024.4
03 15.09 штиль 0 н/о н/о +6.7 +5.8 94 +6 +6 1025.9 1023.8
04 15.09 штиль 0 н/о н/о +6.5 +5.6 94 +5 +5 1025.5 1023.4
05 15.09 Ю 1 н/о н/о +6.4 +5.4 93 +5 +5 1025.5 1023.5
06 15.09 З 1
{2}
н/о н/о +7.0 +6.2 95 +6 +6 1025.3 1023.3 +6.2 2
07 15.09 ЮЗ 2 н/о н/о +11.5 +9.9 90 +10 +10 1025.2 1023.2 30
08 15.09 З 2 н/о н/о +15.3 +10.9 75 +15 +15 1025.2 1023.3 77
09 15.09 З 2
{4}
н/о н/о +17.9 +11.1 64 +18 +18 1025.6 1023.6 116
10 15.09 СЗ 3 н/о н/о +19.6 +11.5 59 +21 +21 комфорт 1025.6 1023.6 139
11 15.09 З 3 н/о н/о +21.4 +11.1 52 +23 +23 комфорт 1025.1 1023.2 178
12 15.09 З 3 н/о н/о +22.6 +9.3 43 +24 +24 комфорт 1024.7 1022.7 186
13 15.09 З 2 н/о н/о +24.2 +7.8 35 +25 +25 комфорт 1023.8 1021.9 189
14 15.09 З 3 н/о н/о +24.6 +7.3 33 +25 +25 комфорт 1023.5 1021.5 170
15 15.09 СЗ 3 н/о н/о +24.7 +7.3 33 +25 +25 комфорт 1023.0 1021.0 143
16 15.09 СЗ 3 н/о н/о +24.5 +6.7 32 +25 +25 комфорт 1022.6 1020.7 104
17 15.09 СЗ 2 н/о н/о +23.3 +6.2 33 +24 +24 комфорт 1022.5 1020.6 57
18 15.09 С 3
{6}
н/о н/о +19.9 +6.0 40 +21 +21 комфорт 1022.9 1021.0 +24.9 12
19 15.09 СВ 2 н/о н/о +17.1 +11.7 71 +17 +17 1023.3 1021.3
20 15.09 СВ 1 н/о н/о +14.6 +11.3 81 +15 +15 1023.4 1021.4
21 15.09 ЮВ 1 н/о н/о +14.5 +12.1 86 +15 +15 1023.3 1021.3
22 15.09 СВ 2 н/о н/о +14.1 +12.3 89 +14 +14 1023.1 1021.1
23 15.09 З 1 н/о н/о +13.3 +11.6 89 +13 +13 1022.9 1020.9
00 16.09 ЮЗ 2 н/о н/о +13.4 +12.0 91 +13 +13 1022.5 1020.5 141
01 16.09 ЮЗ 1 н/о н/о +13.7 +12.1 90 +14 +14 1022.3 1020.3
02 16.09 штиль 0 н/о н/о +13.1 +11.6 91 +13 +13 1022.0 1020.0
03 16.09 штиль 0 н/о н/о +12.9 +11.5 91 +12 +12 1021.6 1019.6
04 16.09 З 1 н/о н/о +13.2 +12.0 92 +13 +13 1020.9 1018.9
05 16.09 ЮЗ 3 н/о н/о +15.1 +11.7 80 +14 +14 1020.5 1018.5
06 16.09 З 2
{5}
н/о н/о +15.9 +10.5 70 +16 +16 1020.3 1018.3 +12.9
07 16.09 ЮЗ 3 н/о н/о +15.7 +10.0 69 +15 +15 1020.6 1018.7 11
08 16.09 ЮЗ 2 н/о н/о +16.2 +11.1 72 +16 +16 1020.9 1018.9 27
09 16.09 З 2
{5}
н/о н/о +17.4 +13.0 75 +18 +18 1020.9 1018.9 47
10 16.09 З 3 н/о н/о +18.5 +14.3 77 +19 +19 1020.9 1018.9 58
11 16.09 З 3 н/о н/о +19.9 +14.9 73 +22 +22 комфорт 1020.7 1018.8 96
12 16.09 СЗ 3 н/о н/о +20.6 +15.1 71 +24 +24 комфорт 1020.6 1018.7 91
13 16.09 СЗ 4 н/о н/о +20.6 +14.4 68 +23 +23 комфорт 1020.6 1018.7 51
14 16.09 С 4 н/о н/о +19.6 +14.5 72 +21 +21 комфорт 1020.7 1018.8 39
15 16.09 С 4 н/о н/о +18.8 +14.5 76 +20 +20 1021.0 1019.0 33
16 16.09 С 4 н/о н/о +18.0 +14.6 81 +18 +18 1021.1 1019.1 10
17 16.09 СВ 2 н/о н/о +16.9 +15.2 90 +17 +17 1021.1 1019.2 5
18 16.09 С 3
{7}
н/о н/о +16.7 +14.4 86 +16 +16 1021.4 1019.4 +20.8 1
19 16.09 СВ 2 н/о н/о +16.4 +13.8 85 +17 +17 1021.6 1019.6
20 16.09 С 3 н/о н/о +15.6 +13.2 86 +15 +15 1022.0 1020.0
21 16.09 С 2 н/о н/о +15.5 +12.8 84 +15 +15 1022.3 1020.3
22 16.09 С 2 н/о н/о +15.3 +12.6 84 +15 +15 1022.6 1020.6
23 16.09 С 2 н/о н/о +15.1 +12.0 82 +15 +15 1022.7 1020.7
00 17.09 С 2 н/о н/о +14.8 +11.5 81 +14 +14 1022.7 1020.7 47
01 17.09 З 1 н/о н/о +14.3 +11.9 85 +15 +15 1022.5 1020.5
02 17.09 З 1 н/о н/о +14.0 +11.9 87 +14 +14 1022.1 1020.1
03 17.09 СЗ 1 н/о н/о +14.0 +11.9 87 +14 +14 1022.3 1020.3
04 17.09 С 2 н/о н/о +13.8 +11.2 84 +13 +13 1022.3 1020.3
05 17.09 СЗ 1 н/о н/о +10.7 +9.0 89 +10 +10 1022.4 1020.3
06 17.09 ЮЗ 1
{3}
н/о н/о +9.4 +8.1 92 +9 +9 1022.7 1020.7 +9.4 1
07 17.09 З 1 н/о н/о +12.5 +11.1 91 +12 +12 1023.1 1021.1 24
08 17.09 З 1 н/о н/о +14.6 +10.8 78 +15 +15 1023.6 1021.6 49
09 17.09 СЗ 2
{5}
н/о н/о +16.3 +8.9 62 +16 +16 1023.5 1021.5 104
10 17.09 СЗ 2 н/о н/о +17.0 +8.8 58 +17 +17 1023.8 1021.8 117
11 17.09 СЗ 3 н/о н/о +17.7 +8.4 54 +18 +18 1023.5 1021.5 122
12 17.09 СЗ 3 н/о н/о +18.3 +8.7 53 +19 +19 1023.4 1021.4 116
13 17.09 С 5 н/о н/о +18.6 +8.9 53 +19 +19 1023.4 1021.4 137

 

Местоположение метеостанции Мелле (Бельгия): широта 50.98 долгота 3.82 высота над уровнем моря 13 м.

В архиве по умолчанию представлена погода в Мелле за последнюю неделю. Архивные данные за месяц целиком и за предыдущие месяцы, начиная с января 2011 года, Вы можете получить, выбрав интересующий диапазон дат из раскрывающегося списка и нажав кнопку "Ввод!".


*Определитесь, кто Вы:
робот инопланетянин человек

Внимание! Время в таблицах - всемирное. Для получения местного времени необходимо прибавить поправку, которая равна 1 ч.

Смотрите также архив погоды в соседних городах и на ближайших метеорологических станциях:

Погода в Семмерзэйке (Бельгия) (12 км)
Погода в Генте (Бельгия) (22 км)
Погода в Вестдорпе (Нидерланды) (28 км)
Погода в Уккеле (Бельгия) (42 км)
Погода в Шьевре (Бельгия) (46 км)
Погода в Хуфдплате (Нидерланды) (46 км)
Погода в Бейтеме (Бельгия) (50 км)
Погода в Брюсселе (Бельгия) (51 км)
Погода в Антверпене (Бельгия) (52 км)
Погода в Гансверте (Нидерланды) (54 км)

Пояснения к столбцам:

Ветер - указаны скорость ветра в м/с - средняя за 10 мин, порывы в срок и между сроками (в фигурных скобках) и направление, откуда дует ветер: С - северный, СВ - северо-восточный, В - восточный, ЮВ - юго-восточный, Ю - южный, ЮЗ - юго-западный, З - западный, СЗ - северо-западный.
Видимость - горизонтальная дальность видимости в метрах или километрах. При видимости от 1 до 10 км при отсутствии осадков обычно наблюдается дымка, при ухудшении видимости до 1 км и менее - туман. В сухую погоду видимость может ухудшаться дымом, пылью или мглою.
Явления - указаны атмосферные явления, наблюдавшиеся в срок или в последний час перед сроком; фигурными скобками обозначены явления, наблюдавшиеся между сроками (за 1-3 часа до срока); квадратными скобками обозначены град или гололедные отложения с указанием их диаметра в мм.
Облачность - указаны через наклонную черту общая и нижняя облачность в баллах и высота нижней границы облаков в метрах; квадратными скобками обозначены формы облаков: Ci - перистые, Cs - перисто-слоистые, Cc - перисто-кучевые, Ac - высококучевые, As - высокослоистые, Sc - слоисто-кучевые, Ns - слоисто-дождевые, Cu - кучевые, Cb - кучево-дождевые. Подробнее классификацию облаков см. в Атласе облаков (PDF).
T - Температура воздуха - температура, измеренная на высоте 2 м над землей.
Td - Температура точки росы - температура, при понижении до которой содержащийся в воздухе водяной пар достигнет насыщения.
f - Относительная влажность воздуха - влажноcть воздуха, измеренная на высоте 2 м над землей.
Te - Эффективная температура - температура, которую ощущает одетый по сезону человек в тени. Характеристика душности погоды. При расчете учитывается влияние влажности воздуха и скорости ветра на теплоощущения человека.
Tes - Эффективная температура на солнце - температура, которую ощущает человек, с поправкой на солнечный нагрев. Характеристика знойности погоды. Зависит от высоты солнца над горизонтом, облачности и скорости ветра. Ночью, в пасмурную погоду, а также при ветре 12 м/с и более поправка равна нулю.
P - Атмосферное давление - приведенное к уровню моря атмосферное давление.
Po - Атмосферное давление - измеренное на уровне метеостанции атмосферное давление.
Tmin - Минимальная температура - минимум температуры воздуха на высоте 2 м над землей.
Tmax - Максимальная температура - максимум температуры воздуха на высоте 2 м над землей.
R - Количество осадков - Количество выпавших осадков за период времени, мм. При наведении курсора мыши на число - период времени, за который выпало указанное количество осадков.
R24 - Количество осадков - Количество выпавших осадков за 24 часа, мм.
S - Снежный покров - Высота снежного покрова, см. При наведении курсора мыши на число - состояние снежного покрова и степень покрытия местности в баллах.